This is the latest recevied weather packets stored in our database for station/object IZ1UQG-N2. If no packets are shown the sender has not sent any weather packets the latest 10 day(s).
| Time | Temp. | Humidity | Pressure | Rain* | Wind** | Luminosity | Snow |
|---|---|---|---|---|---|---|---|
| 1787654501 | 24.44° C | 70% | 1009.1 hPa | 0 mm | - | 738 W/m² | - |
| 1787654441 | 24.44° C | 70% | 1009.1 hPa | 0 mm | - | 738 W/m² | - |
| 1787654381 | 24.44° C | 69% | 1009.1 hPa | 0 mm | - | 737 W/m² | - |
| 1787654321 | 24.44° C | 68% | 1009.2 hPa | 0 mm | - | 738 W/m² | - |
| 1787654260 | 24.44° C | 69% | 1009.1 hPa | 0 mm | - | 738 W/m² | - |
| 1787654200 | 24.44° C | 69% | 1009.2 hPa | 0 mm | - | 738 W/m² | - |
| 1787654140 | 24.44° C | 71% | 1009.2 hPa | 0 mm | - | 740 W/m² | - |
| 1787654081 | 23.89° C | 70% | 1009.2 hPa | 0 mm | - | 522 W/m² | - |
| 1787654021 | 23.89° C | 71% | 1009.3 hPa | 0 mm | - | 737 W/m² | - |
| 1787653961 | 23.89° C | 71% | 1009.2 hPa | 0 mm | - | 737 W/m² | - |
| 1787653901 | 23.89° C | 72% | 1009.2 hPa | 0 mm | - | 737 W/m² | - |
| 1787653840 | 23.89° C | 71% | 1009.3 hPa | 0 mm | - | 737 W/m² | - |
| 1787653780 | 23.89° C | 71% | 1009.2 hPa | 0 mm | - | 737 W/m² | - |
| 1787653720 | 23.89° C | 71% | 1009.3 hPa | 0 mm | - | 735 W/m² | - |
| 1787653660 | 23.89° C | 71% | 1009.2 hPa | 0 mm | - | 735 W/m² | - |
| 1787653602 | 23.89° C | 71% | 1009.2 hPa | 0 mm | - | 733 W/m² | - |
| 1787653541 | 23.89° C | 71% | 1009.4 hPa | 0 mm | - | 731 W/m² | - |
| 1787653481 | 23.89° C | 71% | 1009.3 hPa | 0 mm | - | 731 W/m² | - |
| 1787653421 | 23.33° C | 73% | 1009.2 hPa | 0 mm | - | 731 W/m² | - |
| 1787653361 | 23.33° C | 71% | 1009.2 hPa | 0 mm | - | 728 W/m² | - |
| 1787653301 | 23.33° C | 71% | 1009.2 hPa | 0 mm | - | 730 W/m² | - |
| 1787653241 | 23.33° C | 73% | 1009.2 hPa | 0 mm | - | 728 W/m² | - |
| 1787653180 | 23.33° C | 73% | 1009.2 hPa | 0 mm | - | 724 W/m² | - |
| 1787653120 | 23.89° C | 71% | 1009.2 hPa | 0 mm | - | 723 W/m² | - |
| 1787653060 | 23.89° C | 73% | 1009.3 hPa | 0 mm | - | 723 W/m² | - |
* Rain latest hour (hover to see other rain measurements)
** Current wind speed in m/s (hover to see current wind gust speed)